Location: Santa Barbara
(34.4500°N, 119.7700°W)
Time: 18:48:40
(UTC-07:00)

Envisat - Visible Passes

Search period start: 24 March 2019 00:00
Search period end: 03 April 2019 00:00
Orbit: 764 x 766 km, 98.2° (Epoch: 24 March)

Date Brightness Start Highest point End Pass type
(mag) Time Alt. Az. Time Alt. Az. Time Alt. Az.
24 Mar 4.8 20:23:36 10° SSW 20:28:07 32° W 20:32:39 10° NW visible
25 Mar 3.2 19:46:13 10° S 19:51:17 79° WSW 19:56:23 10° NNW visible
26 Mar 5.8 20:50:28 10° SW 20:53:48 18° W 20:57:10 10° NW visible
27 Mar 4.4 20:12:04 10° S 20:16:50 42° W 20:21:39 10° NNW visible
28 Mar 3.0 19:35:01 10° SSE 19:40:04 81° ENE 19:45:10 10° N visible
29 Mar 5.4 20:38:33 10° SSW 20:42:31 23° W 20:46:29 10° NW visible
30 Mar 3.8 20:00:39 10° S 20:05:36 54° W 20:10:35 10° NNW visible
31 Mar 6.0 21:06:23 10° WSW 21:08:15 12° W 21:10:08 10° WNW visible
01 Apr 5.0 20:26:51 10° SSW 20:31:13 29° W 20:35:37 10° NW visible
02 Apr 3.4 19:49:20 10° S 19:54:22 71° WSW 19:59:27 10° NNW visible
